^^
Saratoga-Weather Station Historical Data
Daily Summary for January 29, 2021 Units:  English    Metric   Both
Daily Weekly Monthly Yearly Custom
  High: Low: Average:
Temperature: 70.9 °F 57.7 °F 63.3 °F
Dew Point: 62.1 °F 55.6 °F 59 °F
Humidity: 95% 71% 86%
Wind Speed: 10.1mph 0mph 1.3mph
Wind Gust: 11mph - -
Wind- - West
Pressure: 29.9 in 29.8 in -
Precipitation: 0.16 in    
Historical Graphs
 
 
Tabular Data for January 29, 2021
Time Temperature Dew Point Pressure Wind Wind Speed Wind Gust Humidity Rainfall Rate (Hourly) solar
00:03 64.9 °F 61.3 °F 29.9 in Calm   1 mph 88% 0 in 0 W/m2
00:08 64.8 °F 61.5 °F 29.9 in NE 0.9 mph 1 mph 89% 0 in 0 W/m2
00:13 64.8 °F 61.5 °F 29.9 in Calm   1 mph 89% 0 in 0 W/m2
00:18 64.8 °F 61.5 °F 29.9 in NE 0.9 mph 2 mph 89% 0 in 0 W/m2
00:23 64.8 °F 61.5 °F 29.9 in Calm   1 mph 89% 0 in 0 W/m2
00:28 64.8 °F 61.5 °F 29.9 in East 0.9 mph 2 mph 89% 0 in 0 W/m2
00:33 64.8 °F 61.5 °F 29.9 in East 2 mph 4 mph 89% 0 in 0 W/m2
00:38 64.9 °F 61.3 °F 29.9 in Calm   4 mph 88% 0 in 0 W/m2
00:43 64.9 °F 61.3 °F 29.9 in Calm   2 mph 88% 0 in 0 W/m2
00:48 64.9 °F 61.3 °F 29.9 in Calm   1 mph 88% 0 in 0 W/m2
00:53 64.9 °F 61.3 °F 29.9 in NW 2 mph 3 mph 88% 0 in 0 W/m2
00:58 64.9 °F 61 °F 29.9 in WNW 2 mph 8 mph 87% 0 in 0 W/m2
01:03 65.1 °F 61.2 °F 29.9 in WNW 2.9 mph 4 mph 87% 0 in 0 W/m2
01:08 65.1 °F 60.8 °F 29.9 in WSW 2.9 mph 8 mph 86% 0 in 0 W/m2
01:13 64.9 °F 60.6 °F 29.9 in WNW 4.9 mph 5 mph 86% 0 in 0 W/m2
01:18 64.9 °F 60.6 °F 29.9 in SW 2 mph 7 mph 86% 0 in 0 W/m2
01:23 64.8 °F 60.4 °F 29.9 in West 0.9 mph 3 mph 86% 0 in 0 W/m2
01:28 64.8 °F 60.1 °F 29.9 in WNW 2 mph 6 mph 85% 0 in 0 W/m2
01:33 64.8 °F 59.9 °F 29.9 in West 0.9 mph 4 mph 84% 0 in 0 W/m2
01:38 64.8 °F 59.9 °F 29.9 in Calm   7 mph 84% 0 in 0 W/m2
01:43 64.8 °F 59.9 °F 29.9 in Calm     84% 0 in 0 W/m2
01:48 64.6 °F 59.4 °F 29.9 in Calm   1 mph 83% 0 in 0 W/m2
01:53 64.4 °F 59.2 °F 29.9 in NW 0.9 mph 1 mph 83% 0 in 0 W/m2
01:58 64.2 °F 59 °F 29.9 in NW 0.9 mph 1 mph 83% 0 in 0 W/m2
02:03 64 °F 58.8 °F 29.9 in WNW 2 mph 2 mph 83% 0 in 0 W/m2
02:08 63.9 °F 58.3 °F 29.9 in West 0.9 mph 3 mph 82% 0 in 0 W/m2
02:13 63.9 °F 58.3 °F 29.9 in West 0.9 mph 2 mph 82% 0 in 0 W/m2
02:18 63.7 °F 58.1 °F 29.9 in West 2 mph 3 mph 82% 0 in 0 W/m2
02:23 63.7 °F 57.7 °F 29.9 in Calm   3 mph 81% 0 in 0 W/m2
02:28 63.5 °F 57.2 °F 29.9 in WNW 2 mph 7 mph 80% 0 in 0 W/m2
02:33 63.5 °F 56.8 °F 29.9 in West 0.9 mph 4 mph 79% 0 in 0 W/m2
02:38 63.5 °F 56.8 °F 29.9 in West 4 mph 4 mph 79% 0 in 0 W/m2
02:43 63.3 °F 57 °F 29.9 in West 0.9 mph 4 mph 80% 0 in 0 W/m2
02:48 63.1 °F 57.2 °F 29.9 in West 0.9 mph 3 mph 81% 0 in 0 W/m2
02:53 63 °F 57 °F 29.9 in West 2 mph 3 mph 81% 0 in 0 W/m2
02:58 62.8 °F 56.8 °F 29.9 in West 0.9 mph 3 mph 81% 0 in 0 W/m2
03:03 62.4 °F 56.5 °F 29.9 in Calm   3 mph 81% 0 in 0 W/m2
03:08 62.4 °F 56.5 °F 29.9 in WNW 2 mph 5 mph 81% 0 in 0 W/m2
03:13 62.2 °F 56.3 °F 29.9 in WNW 0.9 mph 3 mph 81% 0 in 0 W/m2
03:18 62.2 °F 56.7 °F 29.9 in WNW 0.9 mph 5 mph 82% 0 in 0 W/m2
03:23 62.1 °F 56.5 °F 29.9 in WNW 0.9 mph 2 mph 82% 0 in 0 W/m2
03:28 61.9 °F 56.3 °F 29.9 in Calm     82% 0 in 0 W/m2
03:33 61.9 °F 56.7 °F 29.9 in Calm     83% 0 in 0 W/m2
03:38 61.5 °F 56.3 °F 29.9 in Calm   2 mph 83% 0 in 0 W/m2
03:43 61.3 °F 56.5 °F 29.9 in Calm   1 mph 84% 0 in 0 W/m2
03:48 61 °F 56.5 °F 29.9 in Calm     85% 0 in 0 W/m2
03:53 60.8 °F 56.3 °F 29.9 in Calm   1 mph 85% 0 in 0 W/m2
03:58 60.6 °F 56.5 °F 29.9 in Calm     86% 0 in 0 W/m2
04:03 60.4 °F 56.3 °F 29.9 in Calm     86% 0 in 0 W/m2
04:08 60.3 °F 56.3 °F 29.9 in West 0.9 mph 2 mph 87% 0 in 0 W/m2
04:13 60.1 °F 56.1 °F 29.9 in West 0.9 mph 1 mph 87% 0 in 0 W/m2
04:18 59.9 °F 56.3 °F 29.9 in Calm     88% 0 in 0 W/m2
04:23 59.7 °F 56.1 °F 29.9 in Calm   1 mph 88% 0 in 0 W/m2
04:28 59.7 °F 56.1 °F 29.9 in Calm     88% 0 in 0 W/m2
04:33 59.7 °F 56.1 °F 29.9 in Calm     88% 0 in 0 W/m2
04:38 59.5 °F 55.9 °F 29.9 in West 0.9 mph 2 mph 88% 0 in 0 W/m2
04:43 59.4 °F 56.1 °F 29.9 in Calm     89% 0 in 0 W/m2
04:48 59.4 °F 55.8 °F 29.9 in Calm   1 mph 88% 0 in 0 W/m2
04:54 59.2 °F 55.9 °F 29.9 in Calm     89% 0 in 0 W/m2
04:59 58.8 °F 55.6 °F 29.9 in West 0.9 mph 1 mph 89% 0 in 0 W/m2
05:04 58.8 °F 55.9 °F 29.9 in West 2 mph 4 mph 90% 0 in 0 W/m2
05:09 58.8 °F 55.9 °F 29.9 in Calm   1 mph 90% 0 in 0 W/m2
05:14 58.8 °F 55.9 °F 29.9 in Calm   4 mph 90% 0 in 0 W/m2
05:19 58.8 °F 55.9 °F 29.9 in West 0.9 mph 2 mph 90% 0 in 0 W/m2
05:24 58.8 °F 55.9 °F 29.9 in West 2.9 mph 4 mph 90% 0 in 0 W/m2
05:29 59 °F 56.1 °F 29.9 in Calm   3 mph 90% 0 in 0 W/m2
05:34 59 °F 56.1 °F 29.9 in Calm   4 mph 90% 0 in 0 W/m2
05:39 59 °F 56.1 °F 29.9 in Calm     90% 0 in 0 W/m2
05:44 59 °F 56.1 °F 29.9 in West 2 mph 2 mph 90% 0 in 0 W/m2
05:49 59.2 °F 56.3 °F 29.9 in NW 0.9 mph 1 mph 90% 0 in 0 W/m2
05:54 59.2 °F 56.3 °F 29.9 in ESE 0.9 mph 2 mph 90% 0 in 0 W/m2
05:59 59.2 °F 56.3 °F 29.9 in Calm   3 mph 90% 0 in 5 W/m2
06:04 59.2 °F 56.3 °F 29.9 in Calm   3 mph 90% 0 in 5 W/m2
06:09 59.2 °F 56.3 °F 29.9 in ESE 0.9 mph 1 mph 90% 0 in 12 W/m2
06:14 59.2 °F 56.3 °F 29.9 in SW 0.9 mph 3 mph 90% 0 in 16 W/m2
06:19 59.2 °F 56.3 °F 29.9 in SW 0.9 mph 2 mph 90% 0 in 16 W/m2
06:24 59.4 °F 56.5 °F 29.9 in WNW 2 mph 2 mph 90% 0 in 21 W/m2
06:29 59.4 °F 56.1 °F 29.9 in Calm   2 mph 89% 0 in 28 W/m2
06:34 59.5 °F 56.3 °F 29.9 in Calm   1 mph 89% 0 in 23 W/m2
06:39 59.7 °F 56.5 °F 29.9 in West 2 mph 2 mph 89% 0 in 25 W/m2
06:44 59.7 °F 56.5 °F 29.9 in NW 2 mph 3 mph 89% 0 in 28 W/m2
06:49 60.1 °F 56.5 °F 29.9 in NNW 2 mph 3 mph 88% 0 in 30 W/m2
06:54 60.1 °F 56.5 °F 29.9 in North 0.9 mph 1 mph 88% 0 in 28 W/m2
06:59 60.3 °F 56.7 °F 29.9 in North 0.9 mph 2 mph 88% 0 in 25 W/m2
07:04 60.3 °F 56.7 °F 29.9 in Calm     88% 0 in 25 W/m2
07:09 60.3 °F 56.7 °F 29.9 in Calm   1 mph 88% 0 in 19 W/m2
07:14 60.3 °F 56.7 °F 29.9 in NNE 0.9 mph 2 mph 88% 0 in 26 W/m2
07:19 60.3 °F 56.7 °F 29.9 in WNW 2 mph 3 mph 88% 0 in 51 W/m2
07:24 60.4 °F 56.8 °F 29.9 in WNW 0.9 mph 3 mph 88% 0 in 54 W/m2
07:29 60.4 °F 56.5 °F 29.9 in Calm     87% 0 in 53 W/m2
07:34 60.4 °F 56.5 °F 29.9 in Calm   3 mph 87% 0 in 53 W/m2
07:39 60.4 °F 56.5 °F 29.9 in West 0.9 mph 2 mph 87% 0 in 51 W/m2
07:44 60.4 °F 56.8 °F 29.9 in Calm     88% 0 in 58 W/m2
07:49 60.4 °F 56.8 °F 29.9 in NE 0.9 mph 3 mph 88% 0 in 76 W/m2
07:54 60.4 °F 56.8 °F 29.9 in Calm   2 mph 88% 0 in 86 W/m2
07:59 60.6 °F 57 °F 29.9 in Calm   3 mph 88% 0 in 229 W/m2
08:04 61.2 °F 57.6 °F 29.9 in WNW 4 mph 4 mph 88% 0 in 323 W/m2
08:09 61.9 °F 57.9 °F 29.9 in West 2 mph 6 mph 87% 0 in 360 W/m2
08:14 62.6 °F 58.3 °F 29.9 in WNW 2.9 mph 6 mph 86% 0 in 220 W/m2
08:19 63 °F 58.5 °F 29.9 in Calm   3 mph 85% 0 in 146 W/m2
08:24 63.3 °F 58.5 °F 29.9 in Calm   4 mph 84% 0 in 141 W/m2
08:29 63.5 °F 58.3 °F 29.9 in Calm   3 mph 83% 0 in 125 W/m2
08:34 63.9 °F 58.6 °F 29.9 in WSW 2 mph 3 mph 83% 0 in 79 W/m2
08:39 64 °F 58.8 °F 29.9 in West 2 mph 2 mph 83% 0 in 84 W/m2
08:44 64.2 °F 58.6 °F 29.9 in West 2 mph 4 mph 82% 0 in 111 W/m2
08:49 64.6 °F 59 °F 29.9 in West 2 mph 2 mph 82% 0 in 141 W/m2
08:54 64.9 °F 59 °F 29.9 in WSW 6.9 mph 7 mph 81% 0 in 146 W/m2
08:59 65.1 °F 59.2 °F 29.9 in SW 2 mph 3 mph 81% 0 in 169 W/m2
09:04 65.1 °F 59.2 °F 29.9 in Calm   3 mph 81% 0 in 200 W/m2
09:09 65.3 °F 59 °F 29.9 in Calm   3 mph 80% 0 in 220 W/m2
09:14 65.7 °F 59.4 °F 29.9 in ESE 0.9 mph 2 mph 80% 0 in 234 W/m2
09:19 65.8 °F 59.2 °F 29.9 in West 2.9 mph 4 mph 79% 0 in 234 W/m2
09:24 65.8 °F 59.2 °F 29.9 in West 2 mph 2 mph 79% 0 in 531 W/m2
09:29 66 °F 59.7 °F 29.9 in WSW 0.9 mph 3 mph 80% 0 in 424 W/m2
09:34 66.6 °F 59.5 °F 29.9 in Calm   3 mph 78% 0 in 476 W/m2
09:40 66.9 °F 60.3 °F 29.9 in NW 0.9 mph 4 mph 79% 0 in 573 W/m2
09:45 67.3 °F 60.3 °F 29.9 in West 2 mph 4 mph 78% 0 in 575 W/m2
09:50 67.8 °F 60.6 °F 29.9 in NNE 2 mph 2 mph 78% 0 in 596 W/m2
09:55 68.7 °F 60.4 °F 29.9 in Calm   3 mph 75% 0 in 647 W/m2
10:00 69.3 °F 60.6 °F 29.9 in NNE 0.9 mph 4 mph 74% 0 in 336 W/m2
10:05 69.4 °F 60.8 °F 29.9 in ESE 2 mph 3 mph 74% 0 in 274 W/m2
10:10 69.6 °F 61 °F 29.9 in SW 2.9 mph 4 mph 74% 0 in 554 W/m2
10:15 69.6 °F 61 °F 29.9 in West 0.9 mph 3 mph 74% 0 in 345 W/m2
10:20 69.4 °F 60.8 °F 29.9 in NW 2.9 mph 4 mph 74% 0 in 439 W/m2
10:25 69.4 °F 60.8 °F 29.9 in WNW 2 mph 5 mph 74% 0 in 464 W/m2
10:30 69.6 °F 61 °F 29.9 in NW 0.9 mph 3 mph 74% 0 in 376 W/m2
10:35 70 °F 61 °F 29.9 in Calm   5 mph 73% 0 in 302 W/m2
10:40 70 °F 61 °F 29.9 in WNW 2.9 mph 6 mph 73% 0 in 432 W/m2
10:45 70 °F 61 °F 29.9 in SSW 2.9 mph 3 mph 73% 0 in 374 W/m2
10:50 70 °F 61 °F 29.9 in NW 0.9 mph 5 mph 73% 0 in 334 W/m2
10:55 70.2 °F 61.2 °F 29.8 in WSW 2 mph 3 mph 73% 0 in 330 W/m2
11:00 70.2 °F 61.2 °F 29.8 in Calm   5 mph 73% 0 in 454 W/m2
11:05 70.5 °F 61 °F 29.8 in WNW 0.9 mph 2 mph 72% 0 in 483 W/m2
11:10 70.9 °F 61.3 °F 29.8 in Calm   3 mph 72% 0 in 446 W/m2
11:15 70.9 °F 61 °F 29.8 in WNW 2.9 mph 5 mph 71% 0 in 394 W/m2
11:20 70.9 °F 61.3 °F 29.8 in NW 2 mph 6 mph 72% 0 in 359 W/m2
11:25 70.5 °F 60.6 °F 29.9 in West 2.9 mph 8 mph 71% 0 in 327 W/m2
11:30 70.3 °F 60.8 °F 29.9 in WNW 6.9 mph 7 mph 72% 0 in 323 W/m2
11:35 70.2 °F 60.3 °F 29.9 in West 6.9 mph 8 mph 71% 0 in 408 W/m2
11:40 70 °F 60.6 °F 29.8 in WNW 4 mph 5 mph 72% 0 in 373 W/m2
11:45 70 °F 61 °F 29.8 in WNW 2.9 mph 7 mph 73% 0 in 392 W/m2
11:50 70 °F 60.1 °F 29.8 in WNW 0.9 mph 3 mph 71% 0 in 362 W/m2
11:55 70 °F 61 °F 29.8 in NW 4 mph 9 mph 73% 0 in 366 W/m2
12:00 69.6 °F 60.6 °F 29.8 in West 4 mph 8 mph 73% 0 in 381 W/m2
12:05 69.4 °F 60.1 °F 29.8 in WNW 2.9 mph 9 mph 72% 0 in 373 W/m2
12:10 69.6 °F 60.6 °F 29.8 in West 2.9 mph 6 mph 73% 0 in 390 W/m2
12:15 69.6 °F 60.3 °F 29.9 in West 2.9 mph 9 mph 72% 0 in 274 W/m2
12:20 69.3 °F 59.9 °F 29.9 in WSW 2 mph 7 mph 72% 0 in 169 W/m2
12:25 69.1 °F 60.4 °F 29.9 in West 2.9 mph 6 mph 74% 0 in 121 W/m2
12:30 68.7 °F 60.4 °F 29.9 in West 2 mph 6 mph 75% 0 in 83 W/m2
12:35 68.5 °F 60.6 °F 29.9 in WSW 2.9 mph 6 mph 76% 0 in 63 W/m2
12:40 68.4 °F 60.4 °F 29.9 in WNW 10.1 mph 10 mph 76% 0 in 62 W/m2
12:45 68 °F 60.4 °F 29.9 in West 2.9 mph 5 mph 77% 0 in 56 W/m2
12:50 67.6 °F 60.6 °F 29.9 in NW 2.9 mph 4 mph 78% 0 in 40 W/m2
12:55 67.5 °F 60.4 °F 29.9 in West 6 mph 10 mph 78% 0 in 42 W/m2
13:00 67.3 °F 60.3 °F 29.9 in WNW 2.9 mph 5 mph 78% 0 in 47 W/m2
13:05 67.1 °F 60.1 °F 29.9 in NW 2 mph 10 mph 78% 0 in 42 W/m2
13:10 66.9 °F 60.3 °F 29.9 in WNW 2.9 mph 8 mph 79% 0 in 46 W/m2
13:15 66.6 °F 60.3 °F 29.9 in West 2.9 mph 11 mph 80% 0 in 35 W/m2
13:20 66.6 °F 61 °F 29.9 in West 6.9 mph 9 mph 82% 0 in 42 W/m2
13:25 65.7 °F 60.4 °F 29.9 in West 2.9 mph 7 mph 83% 0.01 in 46 W/m2
13:30 65.1 °F 60.4 °F 29.9 in West 4 mph 10 mph 85% 0.01 in 33 W/m2
13:35 64.6 °F 60.6 °F 29.9 in West 2.9 mph 7 mph 87% 0.01 in 21 W/m2
13:40 64.2 °F 60.6 °F 29.9 in WNW 2.9 mph 9 mph 88% 0.02 in 23 W/m2
13:45 63.9 °F 60.3 °F 29.9 in West 2.9 mph 8 mph 88% 0.02 in 25 W/m2
13:50 63.7 °F 60.4 °F 29.9 in West 2.9 mph 7 mph 89% 0.02 in 21 W/m2
13:55 63.5 °F 60.3 °F 29.9 in West 0.9 mph 3 mph 89% 0.02 in 19 W/m2
14:00 63.3 °F 60.1 °F 29.9 in NW 2 mph 6 mph 89% 0.02 in 19 W/m2
14:05 63.1 °F 59.9 °F 29.9 in WSW 2 mph 3 mph 89% 0.02 in 19 W/m2
14:10 63 °F 59.7 °F 29.9 in West 0.9 mph 3 mph 89% 0.02 in 21 W/m2
14:15 63 °F 59.9 °F 29.9 in WNW 2.9 mph 3 mph 90% 0.03 in 23 W/m2
14:20 63 °F 60.3 °F 29.9 in NW 0.9 mph 4 mph 91% 0.04 in 26 W/m2
14:25 62.8 °F 60.1 °F 29.9 in WNW 0.9 mph 2 mph 91% 0.04 in 30 W/m2
14:30 62.8 °F 60.1 °F 29.9 in Calm   1 mph 91% 0.06 in 37 W/m2
14:35 62.8 °F 60.4 °F 29.9 in Calm     92% 0.09 in 47 W/m2
14:40 62.6 °F 60.3 °F 29.9 in Calm     92% 0.09 in 62 W/m2
14:45 62.6 °F 60.3 °F 29.9 in Calm   1 mph 92% 0.1 in 81 W/m2
14:50 62.4 °F 60.1 °F 29.9 in Calm   1 mph 92% 0.1 in 97 W/m2
14:55 62.6 °F 60.6 °F 29.9 in Calm   2 mph 93% 0.1 in 116 W/m2
15:00 62.6 °F 60.6 °F 29.9 in Calm   2 mph 93% 0.1 in 120 W/m2
15:05 62.8 °F 60.8 °F 29.9 in Calm   2 mph 93% 0.1 in 120 W/m2
15:10 62.6 °F 60.6 °F 29.9 in WNW 0.9 mph 2 mph 93% 0.1 in 148 W/m2
15:15 62.6 °F 60.6 °F 29.9 in Calm   1 mph 93% 0.09 in 163 W/m2
15:20 62.6 °F 60.3 °F 29.9 in NW 0.9 mph 2 mph 92% 0.09 in 206 W/m2
15:25 62.6 °F 59.9 °F 29.9 in NW 0.9 mph 2 mph 91% 0.07 in 213 W/m2
15:30 62.8 °F 60.1 °F 29.9 in Calm   1 mph 91% 0.06 in 213 W/m2
15:35 63 °F 60.3 °F 29.9 in Calm     91% 0.03 in 214 W/m2
15:40 63.1 °F 60.4 °F 29.9 in WNW 0.9 mph 2 mph 91% 0.02 in 197 W/m2
15:45 63.3 °F 60.3 °F 29.9 in Calm   2 mph 90% 0.01 in 176 W/m2
15:50 63.7 °F 60.6 °F 29.9 in Calm   1 mph 90% 0.01 in 176 W/m2
15:55 64 °F 61.3 °F 29.9 in NE 0.9 mph 1 mph 91% 0.01 in 211 W/m2
16:01 64 °F 61 °F 29.9 in NW 2 mph 3 mph 90% 0.01 in 244 W/m2
16:06 64 °F 60.8 °F 29.9 in Calm   2 mph 89% 0.01 in 193 W/m2
16:11 64 °F 60.4 °F 29.9 in Calm   1 mph 88% 0.01 in 225 W/m2
16:16 64.2 °F 60.6 °F 29.9 in WNW 0.9 mph 3 mph 88% 0.01 in 156 W/m2
16:21 64.2 °F 60.6 °F 29.9 in WNW 0.9 mph 3 mph 88% 0 in 104 W/m2
16:26 64.2 °F 61 °F 29.9 in WNW 2 mph 6 mph 89% 0 in 121 W/m2
16:31 64 °F 60.8 °F 29.9 in West 2 mph 4 mph 89% 0 in 105 W/m2
16:36 63.9 °F 60.6 °F 29.9 in WNW 4.9 mph 8 mph 89% 0 in 91 W/m2
16:41 63.7 °F 60.6 °F 29.9 in SSW 2 mph 4 mph 90% 0 in 65 W/m2
16:46 63.7 °F 60.6 °F 29.9 in WSW 2 mph 3 mph 90% 0 in 74 W/m2
16:51 63.3 °F 60.3 °F 29.9 in Calm   2 mph 90% 0 in 79 W/m2
16:56 63.3 °F 60.6 °F 29.9 in WNW 2.9 mph 3 mph 91% 0 in 88 W/m2
17:01 63.1 °F 60.1 °F 29.9 in Calm   2 mph 90% 0 in 107 W/m2
17:06 63.3 °F 60.6 °F 29.9 in Calm     91% 0 in 144 W/m2
17:11 63.5 °F 60.8 °F 29.9 in Calm     91% 0 in 153 W/m2
17:16 63.7 °F 61.3 °F 29.9 in Calm     92% 0 in 151 W/m2
17:21 63.9 °F 61.2 °F 29.9 in ENE 2 mph 2 mph 91% 0 in 169 W/m2
17:26 64 °F 61.7 °F 29.9 in ESE 0.9 mph 1 mph 92% 0 in 229 W/m2
17:31 64 °F 61.3 °F 29.9 in Calm   2 mph 91% 0 in 186 W/m2
17:36 64.4 °F 62.1 °F 29.9 in Calm     92% 0 in 107 W/m2
17:41 64.6 °F 61.9 °F 29.9 in Calm   2 mph 91% 0 in 70 W/m2
17:46 64.6 °F 61.5 °F 29.9 in WSW 0.9 mph 2 mph 90% 0 in 77 W/m2
17:51 64.4 °F 61.2 °F 29.9 in West 2 mph 6 mph 89% 0.02 in 120 W/m2
17:56 64 °F 61 °F 29.9 in Calm   2 mph 90% 0.02 in 178 W/m2
18:01 63.9 °F 60.6 °F 29.9 in WSW 0.9 mph 5 mph 89% 0.02 in 330 W/m2
18:06 64 °F 61 °F 29.9 in WNW 2 mph 3 mph 90% 0.02 in 364 W/m2
18:11 64 °F 61 °F 29.9 in Calm   3 mph 90% 0.02 in 176 W/m2
18:16 64.2 °F 61.2 °F 29.9 in West 2 mph 3 mph 90% 0.02 in 128 W/m2
18:21 64.2 °F 61.2 °F 29.9 in Calm     90% 0.02 in 81 W/m2
18:26 64.2 °F 61.2 °F 29.9 in Calm   3 mph 90% 0.02 in 23 W/m2
18:31 64 °F 60.8 °F 29.9 in NNW 4 mph 5 mph 89% 0.03 in 62 W/m2
18:36 63.7 °F 60.1 °F 29.9 in WNW 2.9 mph 6 mph 88% 0.03 in 97 W/m2
18:41 63.3 °F 59.4 °F 29.9 in WNW 2 mph 7 mph 87% 0.03 in 134 W/m2
18:46 63.1 °F 59.9 °F 29.9 in West 2.9 mph 4 mph 89% 0.03 in 167 W/m2
18:51 63.1 °F 60.1 °F 29.9 in WNW 4 mph 5 mph 90% 0.01 in 172 W/m2
18:56 63.1 °F 59.9 °F 29.9 in NW 4.9 mph 7 mph 89% 0.01 in 158 W/m2
19:01 63.1 °F 59.9 °F 29.9 in NW 2 mph 4 mph 89% 0.01 in 160 W/m2
19:06 63.1 °F 59.5 °F 29.9 in NNW 2.9 mph 3 mph 88% 0.01 in 185 W/m2
19:11 63.1 °F 59.9 °F 29.9 in WNW 4 mph 5 mph 89% 0.01 in 306 W/m2
19:16 63.5 °F 59.9 °F 29.9 in WNW 2.9 mph 6 mph 88% 0.01 in 281 W/m2
19:21 63.9 °F 60.6 °F 29.9 in WSW 2.9 mph 3 mph 89% 0.01 in 127 W/m2
19:26 63.9 °F 60.3 °F 29.9 in West 0.9 mph 5 mph 88% 0.01 in 160 W/m2
19:31 63.7 °F 60.1 °F 29.9 in WNW 0.9 mph 3 mph 88% 0 in 105 W/m2
19:36 63.7 °F 60.1 °F 29.9 in Calm     88% 0 in 83 W/m2
19:41 63.3 °F 59.7 °F 29.9 in Calm   2 mph 88% 0 in 104 W/m2
19:46 63.7 °F 60.6 °F 29.9 in Calm   1 mph 90% 0 in 174 W/m2
19:51 63.9 °F 60.3 °F 29.9 in Calm   2 mph 88% 0 in 125 W/m2
19:56 64 °F 60.1 °F 29.9 in Calm     87% 0 in 109 W/m2
20:01 64.2 °F 60.6 °F 29.9 in Calm     88% 0 in 165 W/m2
20:06 64.6 °F 60.6 °F 29.9 in WNW 0.9 mph 2 mph 87% 0 in 174 W/m2
20:11 64.9 °F 60.6 °F 29.9 in West 0.9 mph 2 mph 86% 0 in 162 W/m2
20:16 64.9 °F 60.3 °F 29.9 in WNW 2 mph 3 mph 85% 0 in 137 W/m2
20:21 64.9 °F 60.3 °F 29.9 in West 0.9 mph 2 mph 85% 0 in 141 W/m2
20:26 65.3 °F 60.6 °F 29.9 in Calm     85% 0 in 102 W/m2
20:31 65.7 °F 61.3 °F 29.9 in West 2 mph 2 mph 86% 0 in 60 W/m2
20:36 65.5 °F 60.8 °F 29.9 in Calm     85% 0 in 32 W/m2
20:41 65.1 °F 60.8 °F 29.9 in Calm     86% 0 in 25 W/m2
20:46 64.8 °F 60.4 °F 29.9 in Calm     86% 0 in 19 W/m2
20:51 64 °F 59.7 °F 29.9 in Calm     86% 0 in 16 W/m2
20:56 63.5 °F 59.5 °F 29.9 in Calm     87% 0 in 14 W/m2
21:01 63 °F 59.4 °F 29.9 in Calm     88% 0 in 12 W/m2
21:06 62.4 °F 58.8 °F 29.9 in Calm     88% 0 in 11 W/m2
21:11 61.9 °F 58.3 °F 29.9 in Calm     88% 0 in 9 W/m2
21:16 61.2 °F 57.9 °F 29.9 in Calm     89% 0 in 7 W/m2
21:21 60.8 °F 57.9 °F 29.9 in Calm     90% 0 in 7 W/m2
21:26 60.4 °F 57.7 °F 29.9 in Calm     91% 0 in 5 W/m2
21:31 60.1 °F 57.4 °F 29.9 in Calm     91% 0 in 5 W/m2
21:36 59.7 °F 57.4 °F 29.9 in Calm     92% 0 in 0 W/m2
21:41 59.4 °F 57 °F 29.9 in Calm     92% 0 in 0 W/m2
21:46 59.4 °F 57.4 °F 29.9 in Calm     93% 0 in 0 W/m2
21:51 59.2 °F 57.2 °F 29.9 in Calm     93% 0 in 0 W/m2
21:56 58.8 °F 56.8 °F 29.9 in Calm     93% 0 in 0 W/m2
22:01 58.6 °F 56.7 °F 29.9 in Calm     93% 0 in 0 W/m2
22:06 58.5 °F 56.5 °F 29.9 in Calm     93% 0 in 0 W/m2
22:11 58.3 °F 56.3 °F 29.9 in Calm     93% 0 in 0 W/m2
22:16 58.3 °F 56.5 °F 29.9 in West 0.9 mph 2 mph 94% 0 in 0 W/m2
22:21 58.1 °F 56.3 °F 29.9 in Calm   1 mph 94% 0 in 0 W/m2
22:26 58.1 °F 56.3 °F 29.9 in West 2 mph 2 mph 94% 0 in 0 W/m2
22:31 57.9 °F 56.1 °F 29.9 in Calm     94% 0 in 0 W/m2
22:36 57.9 °F 56.1 °F 29.9 in West 2 mph 2 mph 94% 0 in 0 W/m2
22:41 57.9 °F 56.5 °F 29.9 in West 0.9 mph 1 mph 95% 0 in 0 W/m2
22:46 57.9 °F 56.5 °F 29.9 in Calm   1 mph 95% 0 in 0 W/m2
22:51 57.9 °F 56.5 °F 29.9 in Calm     95% 0 in 0 W/m2
22:56 58.1 °F 56.7 °F 29.9 in Calm   1 mph 95% 0 in 0 W/m2
23:01 57.9 °F 56.5 °F 29.9 in Calm   1 mph 95% 0 in 0 W/m2
23:06 58.1 °F 56.7 °F 29.9 in Calm   2 mph 95% 0 in 0 W/m2
23:11 58.1 °F 56.7 °F 29.9 in WSW 2.9 mph 3 mph 95% 0 in 0 W/m2
23:16 58.1 °F 56.7 °F 29.9 in West 2 mph 2 mph 95% 0 in 0 W/m2
23:21 58.3 °F 56.8 °F 29.9 in WNW 0.9 mph 2 mph 95% 0 in 0 W/m2
23:26 58.3 °F 56.8 °F 29.9 in West 2 mph 3 mph 95% 0 in 0 W/m2
23:31 58.3 °F 56.8 °F 29.9 in WSW 2 mph 3 mph 95% 0 in 0 W/m2
23:36 58.3 °F 56.8 °F 29.9 in WSW 4.9 mph 6 mph 95% 0 in 0 W/m2
23:41 58.3 °F 56.8 °F 29.9 in WNW 2.9 mph 4 mph 95% 0 in 0 W/m2
23:46 58.3 °F 56.5 °F 29.9 in West 2 mph 3 mph 94% 0 in 0 W/m2
23:51 57.9 °F 56.1 °F 29.9 in West 2 mph 3 mph 94% 0 in 0 W/m2
23:56 57.7 °F 55.8 °F 29.9 in WSW 2 mph 4 mph 93% 0 in 0 W/m2
Juneau County Weather
Compliments of Weather Underground - 4 mb